Location: Altavilla Irpina
(41.0000°N, 14.7833°E)
Time: 05:45:24
(UTC+00:00)

Cosmos-2242 - Pass Details

Date: 19 May 2025
Orbit: 569 x 594 km, 82.5° (Epoch: 22 June)

Event Time Altitude Azimuth Distance (km) Brightness Sun altitude
Exits shadow 19:51:27 20° 174° (S) 1,401 4.4 -15.3°
Maximum altitude 19:54:20 67° 95° (E) 649 2.9 -15.7°
Drops below altitude 10° 19:58:35 10° 13° (NNE) 1,936 6.0 -16.3°
Sets 20:00:48 0° 11° (N) 2,840 7.0 -16.6°
